#timestamp,LO_Frequency,Hit,StdDev 
1517551215.7,286046999.1,N
1517551235.5,286046997.2,N
1517551255.4,286046999.3,N
1517551275.2,286046999.4,N
1517551295.0,286046998.7,N
1517551295.9,286046998.7,N
1517551315.8,286046999.0,N
1517551335.6,286046999.4,N
1517551355.5,286046998.5,N
1517551375.3,286047002.4,N
1517551395.1,286046999.9,N
1517551415.9,286047001.0,N
1517551435.7,286046998.8,N
1517551455.5,286046999.4,N
1517551475.4,286046999.6,N
1517551495.2,286046997.1,N
1517551515.1,286046997.8,N
1517551516.0,286046997.8,N
1517551535.8,286046999.2,N
1517551555.6,286046999.2,N
1517551575.5,286046996.5,N
1517551595.3,286046997.6,N
1517551615.1,286046997.1,N
1517551635.9,286046999.4,N
1517551655.7,286046999.0,N
1517551675.6,286046999.1,N
1517551695.4,286046998.2,N
1517551715.2,286046996.6,N
1517551735.1,286046999.3,N
1517551736.0,286046999.3,N
1517551755.8,286046999.2,N
1517551775.6,286046999.3,N
1517551795.5,286046999.2,N
1517551815.3,286046997.2,N
1517551835.2,286046999.2,N
1517551855.9,286046996.6,N
1517551875.7,286046994.9,Y
1517551895.6,286046999.3,P
1517551915.4,286047001.2,P
1517551935.2,286047001.1,N
1517551955.1,286047000.8,N
1517551956.0,286047000.8,N
1517551975.8,286047001.1,N
1517551995.7,286047000.7,N
1517552015.5,286046999.1,N
1517552035.3,286046996.8,Y
1517552055.2,286046999.6,P
1517552075.0,286046999.0,N
1517552075.9,286046999.0,N
1517552095.8,286046999.0,N
1517552115.6,286046999.1,N
1517552135.4,286046999.3,N
1517552155.3,286046998.8,N
1517552175.1,286047000.8,N
1517552195.8,286046998.5,N
1517552215.7,286047000.5,N
1517552235.5,286047001.1,N
1517552255.4,286046998.9,N
1517552275.2,286046998.1,N
1517552295.0,286046998.8,N
1517552295.9,286046998.8,N
1517552315.8,286046999.2,N
1517552335.6,286046996.9,Y
1517552355.4,286046996.9,P
1517552375.3,286046997.1,N
1517552395.1,286046997.3,N
1517552415.9,286046998.4,N
1517552435.7,286046998.5,N
1517552455.5,286046998.7,N
1517552475.4,286046998.4,N
1517552495.2,286046998.1,N
1517552515.1,286047001.0,N
1517552516.0,286047001.0,N
1517552535.8,286046998.2,N
1517552555.6,286047000.9,N
1517552575.5,286047001.1,N
1517552595.3,286047000.8,N
1517552615.1,286046999.5,N
1517552635.9,286046996.8,N
1517552655.7,286046999.4,N
1517552675.6,286046998.6,N
1517552695.4,286047001.1,N
1517552715.2,286046998.7,N
1517552735.1,286046996.9,N
1517552736.0,286046996.9,N
1517552755.8,286046999.3,N
1517552775.6,286046997.0,N
1517552795.5,286046998.3,N
1517552815.3,286047001.1,N
1517552835.1,286047000.8,N
1517552855.9,286046999.3,N
1517552875.7,286047001.1,N
1517552895.6,286046998.2,N
1517552915.4,286046998.8,N
1517552935.2,286046998.1,N
1517552955.1,286046999.9,N
1517552956.0,286046999.9,N
1517552975.8,286047000.4,N
1517552995.7,286047000.7,N
1517553015.5,286046998.6,N
1517553035.3,286047000.5,N
1517553055.2,286047000.5,N
1517553075.9,286046998.3,N
1517553095.7,286047000.4,N
1517553115.6,286047000.9,N
1517553135.4,286047000.4,N
1517553155.3,286046999.7,N
1517553175.1,286047000.3,N
1517553195.8,286047000.6,N
1517553215.7,286046998.6,N
1517553235.5,286046998.8,N
1517553255.4,286046999.1,N
1517553275.2,286046998.1,N
1517553295.0,286047000.1,N
1517553295.9,286047000.1,N
1517553315.8,286047000.7,N
1517553335.6,286047002.8,N
1517553355.4,286047000.4,N
1517553375.3,286047001.2,N
1517553395.1,286047001.0,N
1517553415.9,286047000.9,N
1517553435.7,286046998.8,N
1517553455.5,286047001.1,N
1517553475.4,286046999.9,N
1517553495.2,286047002.4,N
1517553515.0,286047002.8,N
1517553515.9,286047002.8,N
1517553535.8,286047000.7,N
1517553555.6,286047001.2,N
1517553575.5,286047001.2,N
1517553595.3,286047000.4,N
1517553615.1,286047000.0,N
1517553635.4,286047002.3,N
1517553655.2,286047002.0,N
1517553675.0,286047002.3,N
1517553675.9,286047002.3,N
1517553695.8,286047002.6,N
1517553715.6,286047000.4,N
1517553735.4,286047001.1,N
1517553755.3,286046998.5,N
1517553775.1,286047000.0,N
1517553795.9,286047002.6,N
1517553815.7,286047000.1,N
1517553835.5,286047000.4,N
1517553855.5,286047000.5,N
1517553875.4,286047000.0,N
1517553895.2,286047002.8,N
1517553915.0,286047000.5,N
1517553915.9,286047000.5,N
1517553935.8,286047001.6,N
1517553955.6,286047002.2,N
1517553975.2,286047002.7,N
1517553995.5,286047000.2,N
1517554015.4,286046999.7,N
1517554035.2,286047000.7,N
1517554055.0,286047000.3,N
1517554055.9,286047000.3,N
1517554075.8,286047002.1,N
1517554095.6,286046999.9,N
1517554115.5,286047002.7,N
1517554135.3,286047000.2,N
1517554155.1,286047002.4,N
1517554175.9,286047000.3,N
1517554195.7,286047000.0,N
1517554215.5,286046999.8,N
1517554235.4,286046999.7,N
1517554255.2,286046998.2,N
1517554275.1,286047001.2,N
1517554276.0,286047001.2,N
1517554295.8,286046999.2,N
1517554315.6,286046999.5,N
1517554335.5,286046998.8,N
1517554355.3,286046997.7,N
1517554375.1,286046995.7,Y
1517554395.9,286046996.3,P
1517554415.7,286046994.6,N
1517554435.6,286046993.7,N
1517554455.4,286046993.7,N
1517554475.2,286046993.6,N
1517554495.1,286046994.6,N
1517554496.0,286046994.6,N
1517554515.8,286046994.3,N
1517554535.7,286046992.7,Y
1517554555.5,286046997.0,P
1517554575.3,286046997.2,N
1517554595.2,286046996.8,P
1517554615.0,286046997.8,N
1517554635.0,286046997.0,Y
1517554635.9,286046997.0,P
1517554655.8,286047002.3,P
1517554675.6,286047001.9,N
1517554695.4,286047002.3,N
1517554715.3,286047002.6,N
1517554735.1,286047001.9,N
1517554755.9,286047001.7,N
1517554775.7,286047004.3,N
1517554795.5,286047002.0,N
